Location: Amsterdam
(30.7274°N, 84.4357°W)
Time: 02:55:10
(UTC+00:00)

Tiros 1 - Pass Details

Date: 25 February 2026
Orbit: 618 x 649 km, 48.4° (Epoch: 13 March)

Event Time Altitude Azimuth Distance (km) Brightness Sun altitude
Rises 19:08:04 0° 295° (WNW) 2,885 10.5 46.3°
Reaches altitude 10° 19:10:47 10° 280° (W) 1,975 10.0 46.0°
Maximum altitude 19:14:15 22° 230° (SW) 1,359 10.1 45.6°
Drops below altitude 10° 19:17:42 10° 180° (S) 1,966 10.4 45.2°
Sets 19:20:25 0° 165° (SSE) 2,869 10.9 44.9°
